DLH114 EGLL-EKCH

Flight info

Callsign DLH114
Flight time 1h 21m
Altitude 37000
Route BPK6J BPK Q295 SOMVA DCT MAVAS DCT ROCZO DCT DOSUR P729 TUDLO TUDLO3A
Aircraft A320/M-SDE3FGHIRWY/LB1

Departure

Time 2026-05-06 11:44
Airport London Heathrow Airport (EGLL)

Arrival

Time 2026-05-06 13:05
Airport Copenhagen Kastrup Airport (EKCH)
Time Latitude Longitude Altitude Speed Heading
2026-05-06 10:58 51.47248 -0.48212 90 ft 0 kts 89°
2026-05-06 11:07 51.47248 -0.48213 86 ft 0 kts 89°
2026-05-06 11:29 51.47248 -0.48244 86 ft 4 kts 89°
2026-05-06 11:30 51.47249 -0.48287 87 ft 4 kts 89°
2026-05-06 11:30 51.47249 -0.48321 88 ft 4 kts 110°
2026-05-06 11:30 51.47264 -0.48352 87 ft 4 kts 156°
2026-05-06 11:30 51.47288 -0.48359 87 ft 4 kts 180°
2026-05-06 11:31 51.47315 -0.48359 86 ft 4 kts 180°
2026-05-06 11:31 51.47322 -0.48359 86 ft 2 kts 180°
2026-05-06 11:35 51.47314 -0.48359 86 ft 0 kts 179°
2026-05-06 11:35 51.47290 -0.48359 87 ft 6 kts 179°
2026-05-06 11:35 51.47239 -0.48358 87 ft 7 kts 179°
2026-05-06 11:35 51.47192 -0.48357 87 ft 6 kts 179°
2026-05-06 11:36 51.47150 -0.48357 87 ft 7 kts 179°
2026-05-06 11:36 51.47084 -0.48355 90 ft 10 kts 179°
2026-05-06 11:36 51.47021 -0.48355 87 ft 8 kts 181°
2026-05-06 11:36 51.46966 -0.48356 87 ft 7 kts 179°
2026-05-06 11:37 51.46906 -0.48355 89 ft 12 kts 179°
2026-05-06 11:37 51.46838 -0.48355 86 ft 7 kts 180°
2026-05-06 11:37 51.46828 -0.48355 86 ft 0 kts 180°
2026-05-06 11:39 51.46827 -0.48355 86 ft 0 kts 180°
2026-05-06 11:39 51.46795 -0.48354 86 ft 12 kts 179°
2026-05-06 11:39 51.46742 -0.48401 86 ft 9 kts 266°
2026-05-06 11:39 51.46742 -0.48493 86 ft 8 kts 269°
2026-05-06 11:40 51.46741 -0.48575 86 ft 7 kts 270°
2026-05-06 11:40 51.46741 -0.48649 86 ft 6 kts 270°
2026-05-06 11:40 51.46738 -0.48713 86 ft 5 kts 246°
2026-05-06 11:40 51.46715 -0.48738 86 ft 3 kts 207°
2026-05-06 11:41 51.46696 -0.48745 89 ft 2 kts 190°
2026-05-06 11:41 51.46660 -0.48750 86 ft 10 kts 180°
2026-05-06 11:41 51.46597 -0.48765 88 ft 9 kts 198°
2026-05-06 11:41 51.46543 -0.48783 86 ft 7 kts 180°
2026-05-06 11:42 51.46499 -0.48760 89 ft 6 kts 152°
2026-05-06 11:42 51.46478 -0.48709 88 ft 5 kts 98°
2026-05-06 11:42 51.46478 -0.48698 87 ft 0 kts 90°
2026-05-06 11:42 51.46478 -0.48697 87 ft 1 kts 90°
2026-05-06 11:43 51.46479 -0.48456 87 ft 57 kts 89°
2026-05-06 11:43 51.46482 -0.47435 86 ft 122 kts 89°
2026-05-06 11:43 51.46496 -0.45806 227 ft 158 kts 84°
2026-05-06 11:44 51.46539 -0.42275 1571 ft 166 kts 82°
2026-05-06 11:44 51.46927 -0.40467 1938 ft 181 kts 51°
2026-05-06 11:44 51.47779 -0.38812 2293 ft 205 kts 46°
2026-05-06 11:44 51.48759 -0.36962 2767 ft 229 kts 47°
2026-05-06 11:45 51.49829 -0.34925 3420 ft 246 kts 47°
2026-05-06 11:45 51.50937 -0.32794 4386 ft 251 kts 47°
2026-05-06 11:45 51.52036 -0.30590 5376 ft 257 kts 53°
2026-05-06 11:45 51.52770 -0.27890 6279 ft 268 kts 67°
2026-05-06 11:46 51.53370 -0.25030 7171 ft 273 kts 65°
2026-05-06 11:46 51.53992 -0.23048 7777 ft 273 kts 52°
2026-05-06 11:46 51.54728 -0.21620 8295 ft 274 kts 40°
2026-05-06 11:46 51.56292 -0.19904 9164 ft 274 kts 21°
2026-05-06 11:47 51.58077 -0.18769 10037 ft 279 kts 20°
2026-05-06 11:47 51.59964 -0.17681 10461 ft 299 kts 15°
2026-05-06 11:47 51.62032 -0.16697 10866 ft 317 kts 14°
2026-05-06 11:47 51.64178 -0.15683 11536 ft 325 kts 14°
2026-05-06 11:48 51.66366 -0.14659 12296 ft 330 kts 15°
2026-05-06 11:48 51.68590 -0.13629 13066 ft 335 kts 14°
2026-05-06 11:48 51.70817 -0.12400 13794 ft 342 kts 24°
2026-05-06 11:48 51.72827 -0.10281 14438 ft 351 kts 39°
2026-05-06 11:49 51.74440 -0.07278 15103 ft 359 kts 57°
2026-05-06 11:49 51.75485 -0.03595 15769 ft 365 kts 73°
2026-05-06 11:49 51.75927 0.00476 16396 ft 371 kts 82°
2026-05-06 11:49 51.76264 0.04620 17120 ft 373 kts 82°
2026-05-06 11:50 51.76605 0.08804 17750 ft 378 kts 82°
2026-05-06 11:50 51.76950 0.13037 18397 ft 382 kts 82°
2026-05-06 11:50 51.77295 0.17301 19003 ft 385 kts 82°
2026-05-06 11:50 51.77645 0.21611 19549 ft 389 kts 82°
2026-05-06 11:51 51.77998 0.25960 20173 ft 391 kts 82°
2026-05-06 11:51 51.78352 0.30328 20757 ft 395 kts 82°
2026-05-06 11:51 51.78710 0.34742 21326 ft 398 kts 82°
2026-05-06 11:51 51.79070 0.39191 21934 ft 401 kts 82°
2026-05-06 11:52 51.79431 0.43675 22490 ft 405 kts 82°
2026-05-06 11:52 51.79790 0.48203 23082 ft 407 kts 83°
2026-05-06 11:52 51.80148 0.52766 23634 ft 411 kts 83°
2026-05-06 11:52 51.80502 0.57307 24074 ft 414 kts 83°
2026-05-06 11:53 51.80867 0.61933 24535 ft 417 kts 81°
2026-05-06 11:53 51.81537 0.66566 24952 ft 420 kts 71°
2026-05-06 11:53 51.82605 0.70907 25423 ft 422 kts 66°
2026-05-06 11:53 51.83755 0.75281 25846 ft 425 kts 67°
2026-05-06 11:54 51.84903 0.79700 26297 ft 426 kts 66°
2026-05-06 11:54 51.86049 0.84138 26680 ft 430 kts 67°
2026-05-06 11:54 51.87200 0.88608 27097 ft 432 kts 67°
2026-05-06 11:54 51.88355 0.93104 27491 ft 434 kts 67°
2026-05-06 11:55 51.89516 0.97635 27883 ft 436 kts 68°
2026-05-06 11:55 51.90681 1.02190 28275 ft 439 kts 68°
2026-05-06 11:55 51.91852 1.06778 28658 ft 442 kts 68°
2026-05-06 11:55 51.93027 1.11392 29009 ft 444 kts 68°
2026-05-06 11:56 51.94208 1.16036 29374 ft 447 kts 68°
2026-05-06 11:56 51.95393 1.20697 29731 ft 449 kts 68°
2026-05-06 11:56 51.96584 1.25389 30070 ft 451 kts 68°
2026-05-06 11:56 51.97780 1.30105 30357 ft 453 kts 68°
2026-05-06 11:57 51.98976 1.34833 30652 ft 455 kts 68°
2026-05-06 11:57 52.00178 1.39593 30943 ft 456 kts 68°
2026-05-06 11:57 52.01376 1.44360 31204 ft 458 kts 68°
2026-05-06 11:57 52.02171 1.47536 31387 ft 459 kts 68°
2026-05-06 11:58 52.03777 1.53958 31808 ft 459 kts 68°
2026-05-06 11:58 52.04972 1.58752 32201 ft 457 kts 68°
2026-05-06 11:58 52.06164 1.63541 32585 ft 456 kts 68°
2026-05-06 11:58 52.06951 1.66699 32843 ft 455 kts 68°
2026-05-06 11:59 52.08138 1.71461 33218 ft 454 kts 68°
2026-05-06 11:59 52.09319 1.76207 33603 ft 453 kts 68°
2026-05-06 11:59 52.10497 1.80950 33968 ft 452 kts 68°
2026-05-06 11:59 52.11671 1.85685 34280 ft 451 kts 68°
2026-05-06 12:00 52.13217 1.91961 34625 ft 451 kts 68°
2026-05-06 12:00 52.14001 1.95160 34794 ft 452 kts 68°
2026-05-06 12:00 52.15540 2.01465 35070 ft 453 kts 69°
2026-05-06 12:00 52.16314 2.04635 35224 ft 454 kts 69°
2026-05-06 12:01 52.17480 2.09412 35451 ft 455 kts 69°
2026-05-06 12:01 52.18664 2.14258 35689 ft 455 kts 69°
2026-05-06 12:01 52.19816 2.18988 35911 ft 455 kts 69°
2026-05-06 12:01 52.20998 2.23853 36141 ft 455 kts 69°
2026-05-06 12:02 52.22160 2.28653 36359 ft 456 kts 69°
2026-05-06 12:02 52.23307 2.33405 36561 ft 456 kts 69°
2026-05-06 12:02 52.24469 2.38221 36769 ft 457 kts 69°
2026-05-06 12:02 52.25631 2.43045 36969 ft 457 kts 69°
2026-05-06 12:03 52.26791 2.47883 37170 ft 458 kts 69°
2026-05-06 12:03 52.27948 2.52726 37345 ft 458 kts 69°
2026-05-06 12:03 52.29104 2.57582 37524 ft 459 kts 69°
2026-05-06 12:03 52.30260 2.62449 37706 ft 460 kts 69°
2026-05-06 12:04 52.31257 2.67399 37892 ft 459 kts 75°
2026-05-06 12:04 52.32141 2.72413 38065 ft 459 kts 75°
2026-05-06 12:04 52.33029 2.77438 38252 ft 460 kts 75°
2026-05-06 12:04 52.33915 2.82455 38423 ft 460 kts 75°
2026-05-06 12:05 52.34801 2.87497 38596 ft 460 kts 75°
2026-05-06 12:05 52.35681 2.92530 38742 ft 461 kts 75°
2026-05-06 12:05 52.36557 2.97566 38881 ft 460 kts 75°
2026-05-06 12:05 52.37433 3.02625 38937 ft 462 kts 75°
2026-05-06 12:06 52.39197 3.12748 38947 ft 463 kts 72°
2026-05-06 12:06 52.42085 3.22137 38948 ft 464 kts 56°
2026-05-06 12:07 52.45680 3.30941 38948 ft 465 kts 57°
2026-05-06 12:07 52.49211 3.39735 38942 ft 465 kts 57°
2026-05-06 12:08 52.52769 3.48603 38944 ft 465 kts 57°
2026-05-06 12:08 52.56341 3.57489 38938 ft 466 kts 57°
2026-05-06 12:09 52.59900 3.66398 38932 ft 466 kts 57°
2026-05-06 12:09 52.63442 3.75325 38935 ft 466 kts 57°
2026-05-06 12:10 52.66989 3.84273 38930 ft 467 kts 57°
2026-05-06 12:10 52.70536 3.93239 38938 ft 467 kts 57°
2026-05-06 12:11 52.74072 4.02218 38922 ft 467 kts 57°
2026-05-06 12:11 52.77606 4.11218 38924 ft 467 kts 57°
2026-05-06 12:12 52.81134 4.20240 38933 ft 467 kts 58°
2026-05-06 12:12 52.84653 4.29270 38929 ft 467 kts 58°
2026-05-06 12:13 52.88167 4.38317 38937 ft 467 kts 58°
2026-05-06 12:13 52.91673 4.47388 38939 ft 468 kts 58°
2026-05-06 12:14 52.95179 4.56484 38943 ft 468 kts 58°
2026-05-06 12:14 52.98674 4.65579 38948 ft 468 kts 58°
2026-05-06 12:15 53.02166 4.74714 38930 ft 468 kts 58°
2026-05-06 12:15 53.05653 4.83855 38932 ft 468 kts 58°
2026-05-06 12:16 53.09136 4.93008 38955 ft 469 kts 58°
2026-05-06 12:16 53.12611 5.02186 38957 ft 469 kts 58°
2026-05-06 12:17 53.16083 5.11384 38959 ft 469 kts 58°
2026-05-06 12:17 53.19548 5.20593 38954 ft 469 kts 58°
2026-05-06 12:18 53.23008 5.29830 38951 ft 469 kts 58°
2026-05-06 12:18 53.26428 5.39014 38951 ft 469 kts 59°
2026-05-06 12:19 53.29874 5.48290 38949 ft 470 kts 59°
2026-05-06 12:19 53.33314 5.57580 38950 ft 470 kts 59°
2026-05-06 12:20 53.36747 5.66889 38927 ft 470 kts 59°
2026-05-06 12:20 53.40179 5.76209 38932 ft 470 kts 59°
2026-05-06 12:21 53.43603 5.85548 38936 ft 470 kts 59°
2026-05-06 12:21 53.47018 5.94908 38946 ft 470 kts 59°
2026-05-06 12:22 53.50424 6.04278 38942 ft 471 kts 59°
2026-05-06 12:22 53.53827 6.13691 38944 ft 471 kts 59°
2026-05-06 12:23 53.57219 6.23096 38923 ft 471 kts 59°
2026-05-06 12:23 53.60611 6.32526 38940 ft 471 kts 59°
2026-05-06 12:24 53.63973 6.41923 38941 ft 471 kts 59°
2026-05-06 12:24 53.67350 6.51387 38941 ft 471 kts 59°
2026-05-06 12:25 53.70721 6.60874 38942 ft 472 kts 60°
2026-05-06 12:25 53.74083 6.70388 38937 ft 472 kts 60°
2026-05-06 12:26 53.77439 6.79912 38928 ft 472 kts 60°
2026-05-06 12:26 53.80790 6.89440 38939 ft 471 kts 60°
2026-05-06 12:27 53.84136 6.98992 38934 ft 471 kts 60°
2026-05-06 12:27 53.87468 7.08561 38936 ft 472 kts 60°
2026-05-06 12:28 53.90793 7.18148 38934 ft 472 kts 60°
2026-05-06 12:28 53.94122 7.27759 38941 ft 472 kts 60°
2026-05-06 12:29 53.97446 7.37384 38931 ft 472 kts 60°
2026-05-06 12:29 54.00758 7.47026 38926 ft 473 kts 60°
2026-05-06 12:30 54.04061 7.56693 38939 ft 473 kts 60°
2026-05-06 12:30 54.07355 7.66379 38932 ft 473 kts 61°
2026-05-06 12:31 54.10639 7.76082 38932 ft 473 kts 61°
2026-05-06 12:31 54.13922 7.85808 38931 ft 473 kts 61°
2026-05-06 12:32 54.17685 7.94902 38932 ft 474 kts 46°
2026-05-06 12:32 54.22252 8.03034 38925 ft 474 kts 46°
2026-05-06 12:33 54.26814 8.11180 38931 ft 474 kts 46°
2026-05-06 12:33 54.31372 8.19360 38935 ft 475 kts 46°
2026-05-06 12:34 54.35926 8.27567 38931 ft 475 kts 46°
2026-05-06 12:34 54.40468 8.35779 38929 ft 475 kts 46°
2026-05-06 12:35 54.45017 8.44013 38931 ft 475 kts 46°
2026-05-06 12:35 54.49563 8.52290 38939 ft 476 kts 46°
2026-05-06 12:36 54.54079 8.60541 38936 ft 476 kts 46°
2026-05-06 12:36 54.58619 8.68849 38921 ft 477 kts 46°
2026-05-06 12:37 54.63155 8.77190 38923 ft 476 kts 47°
2026-05-06 12:37 54.67682 8.85558 38863 ft 477 kts 47°
2026-05-06 12:38 54.69941 8.89737 38655 ft 476 kts 47°
2026-05-06 12:38 54.72201 8.93919 38390 ft 475 kts 47°
2026-05-06 12:38 54.74453 8.98091 38118 ft 475 kts 47°
2026-05-06 12:38 54.76707 9.02281 37835 ft 475 kts 47°
2026-05-06 12:39 54.78961 9.06480 37562 ft 475 kts 47°
2026-05-06 12:39 54.81203 9.10668 37291 ft 475 kts 47°
2026-05-06 12:39 54.83447 9.14874 37029 ft 475 kts 47°
2026-05-06 12:39 54.85690 9.19087 36760 ft 475 kts 47°
2026-05-06 12:40 54.87911 9.23316 36496 ft 474 kts 49°
2026-05-06 12:40 54.90108 9.27599 36245 ft 474 kts 49°
2026-05-06 12:40 54.92281 9.31900 35993 ft 474 kts 49°
2026-05-06 12:40 54.94448 9.36224 35747 ft 474 kts 50°
2026-05-06 12:41 54.96608 9.40549 35399 ft 470 kts 50°
2026-05-06 12:41 54.98749 9.44820 34842 ft 467 kts 50°
2026-05-06 12:41 55.00872 9.49088 34302 ft 464 kts 50°
2026-05-06 12:41 55.02990 9.53322 33708 ft 462 kts 50°
2026-05-06 12:42 55.05069 9.57456 33165 ft 457 kts 50°
2026-05-06 12:42 55.07159 9.61600 32635 ft 453 kts 50°
2026-05-06 12:42 55.09167 9.65797 32091 ft 448 kts 56°
2026-05-06 12:42 55.10775 9.70415 31568 ft 441 kts 66°
2026-05-06 12:43 55.11911 9.75336 31062 ft 434 kts 76°
2026-05-06 12:43 55.12802 9.80346 30559 ft 430 kts 76°
2026-05-06 12:43 55.13691 9.85326 30059 ft 428 kts 76°
2026-05-06 12:43 55.14576 9.90262 29529 ft 424 kts 76°
2026-05-06 12:44 55.15454 9.95168 29049 ft 419 kts 75°
2026-05-06 12:44 55.16314 9.99992 28602 ft 415 kts 75°
2026-05-06 12:44 55.17166 10.04791 28148 ft 410 kts 75°
2026-05-06 12:44 55.18006 10.09542 27698 ft 407 kts 75°
2026-05-06 12:45 55.18834 10.14240 27259 ft 403 kts 75°
2026-05-06 12:45 55.19653 10.18915 26828 ft 400 kts 75°
2026-05-06 12:45 55.21267 10.28165 25962 ft 394 kts 75°
2026-05-06 12:46 55.22060 10.32725 25521 ft 391 kts 75°
2026-05-06 12:46 55.22851 10.37271 25074 ft 389 kts 75°
2026-05-06 12:46 55.23636 10.41790 24618 ft 387 kts 75°
2026-05-06 12:46 55.24414 10.46285 24149 ft 386 kts 75°
2026-05-06 12:47 55.25188 10.50778 23683 ft 384 kts 75°
2026-05-06 12:47 55.25957 10.55268 23143 ft 383 kts 75°
2026-05-06 12:47 55.26719 10.59726 22668 ft 380 kts 75°
2026-05-06 12:47 55.27478 10.64155 22195 ft 378 kts 75°
2026-05-06 12:48 55.28231 10.68549 21722 ft 376 kts 74°
2026-05-06 12:48 55.28983 10.72932 21260 ft 373 kts 74°
2026-05-06 12:48 55.29732 10.77288 20797 ft 371 kts 74°
2026-05-06 12:48 55.30477 10.81614 20346 ft 370 kts 74°
2026-05-06 12:49 55.31217 10.85937 19893 ft 369 kts 74°
2026-05-06 12:49 55.31701 10.88782 19595 ft 368 kts 74°
2026-05-06 12:49 55.32668 10.94484 18999 ft 367 kts 74°
2026-05-06 12:49 55.33390 10.98763 18556 ft 366 kts 74°
2026-05-06 12:50 55.34109 11.03055 18100 ft 365 kts 74°
2026-05-06 12:50 55.34821 11.07325 17634 ft 363 kts 74°
2026-05-06 12:50 55.35522 11.11564 17193 ft 360 kts 74°
2026-05-06 12:50 55.36216 11.15779 16756 ft 358 kts 74°
2026-05-06 12:51 55.36670 11.18558 16476 ft 357 kts 74°
2026-05-06 12:51 55.37355 11.22741 16071 ft 355 kts 74°
2026-05-06 12:51 55.38037 11.26898 15640 ft 353 kts 74°
2026-05-06 12:51 55.38948 11.32435 15083 ft 351 kts 74°
2026-05-06 12:52 55.39396 11.35160 14810 ft 350 kts 74°
2026-05-06 12:52 55.40070 11.39267 14397 ft 348 kts 74°
2026-05-06 12:52 55.40740 11.43351 13985 ft 347 kts 74°
2026-05-06 12:52 55.41402 11.47419 13547 ft 346 kts 74°
2026-05-06 12:53 55.42057 11.51479 13115 ft 343 kts 74°
2026-05-06 12:53 55.42703 11.55499 12772 ft 338 kts 74°
2026-05-06 12:53 55.43334 11.59403 12636 ft 325 kts 74°
2026-05-06 12:53 55.44049 11.63094 12113 ft 315 kts 64°
2026-05-06 12:54 55.45168 11.66342 11653 ft 307 kts 54°
2026-05-06 12:54 55.46386 11.69438 11398 ft 306 kts 54°
2026-05-06 12:54 55.47583 11.72514 11141 ft 304 kts 54°
2026-05-06 12:54 55.48776 11.75592 10895 ft 303 kts 54°
2026-05-06 12:55 55.49951 11.78635 10640 ft 299 kts 54°
2026-05-06 12:55 55.51120 11.81667 10398 ft 298 kts 54°
2026-05-06 12:55 55.52280 11.84684 10146 ft 296 kts 55°
2026-05-06 12:55 55.53433 11.87679 9898 ft 294 kts 54°
2026-05-06 12:56 55.54559 11.90671 9643 ft 293 kts 59°
2026-05-06 12:56 55.55254 11.94012 8978 ft 290 kts 82°
2026-05-06 12:56 55.55154 11.97509 8296 ft 285 kts 105°
2026-05-06 12:56 55.54497 12.00772 7616 ft 280 kts 110°
2026-05-06 12:57 55.53815 12.03955 6982 ft 273 kts 109°
2026-05-06 12:57 55.53150 12.07057 6341 ft 268 kts 109°
2026-05-06 12:57 55.52499 12.10111 5634 ft 264 kts 109°
2026-05-06 12:57 55.51859 12.13127 4954 ft 260 kts 108°
2026-05-06 12:58 55.51325 12.16115 4309 ft 253 kts 103°
2026-05-06 12:58 55.50857 12.19107 3762 ft 252 kts 104°
2026-05-06 12:58 55.50399 12.22072 3368 ft 249 kts 103°
2026-05-06 12:58 55.49946 12.25009 3023 ft 247 kts 104°
2026-05-06 12:59 55.49500 12.27901 2830 ft 246 kts 104°
2026-05-06 12:59 55.49046 12.30838 2358 ft 244 kts 103°
2026-05-06 12:59 55.48602 12.33709 2026 ft 239 kts 104°
2026-05-06 12:59 55.48184 12.36428 1999 ft 221 kts 102°
2026-05-06 13:00 55.48071 12.38989 2001 ft 202 kts 83°
2026-05-06 13:00 55.48331 12.41346 2005 ft 193 kts 76°
2026-05-06 13:00 55.48713 12.43584 2005 ft 185 kts 64°
2026-05-06 13:00 55.49459 12.45342 2034 ft 174 kts 45°
2026-05-06 13:01 55.50321 12.46660 2013 ft 158 kts 44°
2026-05-06 13:01 55.51109 12.47865 1993 ft 141 kts 45°
2026-05-06 13:01 55.51828 12.48970 1923 ft 134 kts 45°
2026-05-06 13:01 55.52514 12.50024 1830 ft 129 kts 45°
2026-05-06 13:02 55.53186 12.51058 1663 ft 128 kts 46°
2026-05-06 13:02 55.53852 12.52082 1486 ft 127 kts 46°
2026-05-06 13:02 55.54518 12.53107 1316 ft 128 kts 47°
2026-05-06 13:02 55.55189 12.54140 1140 ft 128 kts 46°
2026-05-06 13:03 55.55853 12.55162 959 ft 128 kts 47°
2026-05-06 13:03 55.56524 12.56209 780 ft 130 kts 45°
2026-05-06 13:03 55.57208 12.57257 580 ft 130 kts 45°
2026-05-06 13:03 55.57888 12.58310 406 ft 130 kts 43°
2026-05-06 13:04 55.58574 12.59358 224 ft 131 kts 46°
2026-05-06 13:04 55.59259 12.60408 46 ft 130 kts 43°
2026-05-06 13:04 55.59851 12.61334 18 ft 95 kts 41°
2026-05-06 13:04 55.60276 12.61989 18 ft 65 kts 42°
2026-05-06 13:05 55.60514 12.62291 20 ft 30 kts 21°
2026-05-06 13:05 55.60657 12.62352 18 ft 20 kts 10°
2026-05-06 13:05 55.60783 12.62411 17 ft 18 kts 26°
2026-05-06 13:05 55.60890 12.62554 17 ft 21 kts 42°
2026-05-06 13:06 55.61002 12.62734 17 ft 23 kts 40°
2026-05-06 13:06 55.61128 12.62927 17 ft 25 kts 41°
2026-05-06 13:06 55.61259 12.63130 18 ft 24 kts 40°
2026-05-06 13:06 55.61387 12.63329 17 ft 26 kts 42°
2026-05-06 13:07 55.61517 12.63532 17 ft 25 kts 41°
2026-05-06 13:07 55.61635 12.63714 17 ft 22 kts 41°
2026-05-06 13:07 55.61751 12.63892 17 ft 21 kts 41°
2026-05-06 13:07 55.61866 12.64064 18 ft 20 kts 31°
2026-05-06 13:08 55.61999 12.64183 17 ft 23 kts 25°
2026-05-06 13:08 55.62143 12.64299 16 ft 16 kts 25°
2026-05-06 13:08 55.62223 12.64370 16 ft 13 kts 32°
2026-05-06 13:08 55.62272 12.64510 17 ft 14 kts 65°
2026-05-06 13:09 55.62308 12.64644 19 ft 10 kts 64°
2026-05-06 13:09 55.62341 12.64759 17 ft 9 kts 48°
2026-05-06 13:09 55.62393 12.64781 17 ft 8 kts
2026-05-06 13:09 55.62442 12.64780 18 ft 7 kts 357°
2026-05-06 13:10 55.62486 12.64775 18 ft 6 kts 358°
2026-05-06 13:10 55.62525 12.64773 17 ft 5 kts 358°
2026-05-06 13:10 55.62550 12.64796 19 ft 3 kts 67°
2026-05-06 13:10 55.62553 12.64836 17 ft 4 kts 86°
2026-05-06 13:11 55.62554 12.64881 17 ft 0 kts 88°